Terug naar catalogus

IRIDIUM 154

ActiefCommunicatiePO
NORAD 43574·PAYLOAD·🇺🇸 United States

Gelanceerd Jul 25, 2018 vanaf Vandenberg Space Force Base

Loading…

Volgende Passages (komende 24 uur)

TLE

VersSource: CelesTrak SupGP

Epoch: Sep 14, 2026, 21:57 UTC

1 43574C 18061F   26257.91493056 -.00001972  00000+0 -70518-3 0  2579
2 43574  86.4013  19.2807 0002135  95.0791  63.8912 14.34220765    10

Volg IRIDIUM 154 in realtime met AllMySat

Download on the App Store